Time,TemperatureF,DewpointF,PressureIn,WindDirection,WindDirectionDegrees,WindSpeedMPH,WindSpeedGustMPH,Humidity,HourlyPrecipIn,Conditions,Clouds,dailyrainin,SoftwareType,DateUTC
2013-07-06 00:05:00,79.1,75.2,30.14,SE,134,0.0,0.0,88,0.00,,,0.00,Wunderground v.1.15,2013-07-06 04:05:00,
2013-07-06 00:15:00,79.1,75.2,30.14,SE,134,0.0,0.0,88,0.00,,,0.00,Wunderground v.1.15,2013-07-06 04:15:00,
2013-07-06 00:24:00,78.9,75.4,30.14,SE,134,0.0,0.0,89,0.00,,,0.00,Wunderground v.1.15,2013-07-06 04:24:00,
2013-07-06 00:30:00,78.9,75.4,30.14,SE,134,0.0,0.0,89,0.00,,,0.00,Wunderground v.1.15,2013-07-06 04:30:00,
2013-07-06 00:35:00,78.8,74.9,30.14,SE,134,0.0,0.0,88,0.00,,,0.00,Wunderground v.1.15,2013-07-06 04:35:00,
2013-07-06 00:45:00,78.7,74.8,30.13,ESE,123,0.0,0.0,88,0.00,,,0.00,Wunderground v.1.15,2013-07-06 04:45:00,
2013-07-06 00:54:00,78.6,74.7,30.13,ESE,121,0.0,0.0,88,0.00,,,0.00,Wunderground v.1.15,2013-07-06 04:54:00,
2013-07-06 01:00:00,78.6,74.7,30.13,SE,133,0.0,0.0,88,0.00,,,0.00,Wunderground v.1.15,2013-07-06 05:00:00,
2013-07-06 01:05:00,78.5,74.6,30.13,South,173,0.0,0.0,88,0.00,,,0.00,Wunderground v.1.15,2013-07-06 05:05:00,
2013-07-06 01:15:00,78.4,74.5,30.13,SSE,167,0.0,0.0,88,0.00,,,0.00,Wunderground v.1.15,2013-07-06 05:15:00,
2013-07-06 01:24:00,78.3,74.5,30.13,SSE,157,0.0,1.0,88,0.00,,,0.00,Wunderground v.1.15,2013-07-06 05:24:00,
2013-07-06 01:34:00,78.2,74.7,30.12,SSE,151,0.0,1.0,89,0.00,,,0.00,Wunderground v.1.15,2013-07-06 05:34:00,
2013-07-06 01:40:00,78.3,74.8,30.12,SSE,151,0.0,0.0,89,0.00,,,0.00,Wunderground v.1.15,2013-07-06 05:40:00,
2013-07-06 01:50:00,78.2,74.7,30.12,SE,145,0.0,0.0,89,0.00,,,0.00,Wunderground v.1.15,2013-07-06 05:50:00,
2013-07-06 01:59:00,78.1,74.6,30.12,SE,144,0.0,0.0,89,0.00,,,0.00,Wunderground v.1.15,2013-07-06 05:59:00,
2013-07-06 02:05:00,78.1,74.6,30.12,SE,144,0.0,0.0,89,0.00,,,0.00,Wunderground v.1.15,2013-07-06 06:05:00,
2013-07-06 02:10:00,78.1,74.6,30.12,SE,144,0.0,0.0,89,0.00,,,0.00,Wunderground v.1.15,2013-07-06 06:10:00,
2013-07-06 02:20:00,77.9,74.4,30.12,SE,146,0.0,0.0,89,0.00,,,0.00,Wunderground v.1.15,2013-07-06 06:20:00,
2013-07-06 02:29:00,77.9,74.7,30.12,SE,146,0.0,0.0,90,0.00,,,0.00,Wunderground v.1.15,2013-07-06 06:29:00,
2013-07-06 02:34:00,77.9,74.7,30.12,SE,146,0.0,0.0,90,0.00,,,0.00,Wunderground v.1.15,2013-07-06 06:34:00,
2013-07-06 02:45:00,77.8,74.6,30.11,SE,146,0.0,0.0,90,0.00,,,0.00,Wunderground v.1.15,2013-07-06 06:45:00,
2013-07-06 02:55:00,77.7,74.5,30.11,SSE,152,0.0,0.0,90,0.00,,,0.00,Wunderground v.1.15,2013-07-06 06:55:00,
2013-07-06 03:05:00,77.7,74.5,30.11,SSE,151,0.0,0.0,90,0.00,,,0.00,Wunderground v.1.15,2013-07-06 07:05:00,
2013-07-06 03:15:00,77.7,74.5,30.11,SSE,151,0.0,0.0,90,0.00,,,0.00,Wunderground v.1.15,2013-07-06 07:15:00,
2013-07-06 03:25:00,77.6,74.4,30.11,SSE,151,0.0,0.0,90,0.00,,,0.00,Wunderground v.1.15,2013-07-06 07:25:00,
2013-07-06 03:35:00,77.6,74.8,30.10,SE,146,0.0,0.0,91,0.00,,,0.00,Wunderground v.1.15,2013-07-06 07:35:00,
2013-07-06 03:44:00,77.5,74.7,30.10,SSE,163,0.0,0.0,91,0.00,,,0.00,Wunderground v.1.15,2013-07-06 07:44:00,
2013-07-06 03:50:00,77.5,74.7,30.10,SSE,163,0.0,0.0,91,0.00,,,0.00,Wunderground v.1.15,2013-07-06 07:50:00,
2013-07-06 04:00:00,77.4,74.6,30.10,SSE,163,0.0,0.0,91,0.00,,,0.00,Wunderground v.1.15,2013-07-06 08:00:00,
2013-07-06 04:05:00,77.4,74.6,30.10,SSE,157,0.0,0.0,91,0.00,,,0.00,Wunderground v.1.15,2013-07-06 08:05:00,
2013-07-06 04:14:00,77.3,74.5,30.10,SSE,157,0.0,0.0,91,0.00,,,0.00,Wunderground v.1.15,2013-07-06 08:14:00,
2013-07-06 04:20:00,77.2,74.4,30.10,SSE,157,0.0,0.0,91,0.00,,,0.00,Wunderground v.1.15,2013-07-06 08:20:00,
2013-07-06 04:30:00,77.2,74.4,30.10,SSE,161,0.0,0.0,91,0.00,,,0.00,Wunderground v.1.15,2013-07-06 08:30:00,
2013-07-06 04:35:00,77.1,74.3,30.10,SSE,161,0.0,0.0,91,0.00,,,0.00,Wunderground v.1.15,2013-07-06 08:35:00,
2013-07-06 04:44:00,77.1,74.3,30.10,East,101,0.0,0.0,91,0.00,,,0.00,Wunderground v.1.15,2013-07-06 08:44:00,
2013-07-06 04:50:00,77.1,74.3,30.10,ENE,67,0.0,0.0,91,0.00,,,0.00,Wunderground v.1.15,2013-07-06 08:50:00,
2013-07-06 05:00:00,77.0,74.2,30.10,ENE,68,0.0,0.0,91,0.00,,,0.00,Wunderground v.1.15,2013-07-06 09:00:00,
2013-07-06 05:05:00,77.0,74.5,30.10,ENE,68,0.0,0.0,92,0.00,,,0.00,Wunderground v.1.15,2013-07-06 09:05:00,
2013-07-06 05:14:00,77.0,74.5,30.09,ENE,68,0.0,0.0,92,0.00,,,0.00,Wunderground v.1.15,2013-07-06 09:14:00,
2013-07-06 05:25:00,77.0,74.5,30.09,ENE,68,0.0,0.0,92,0.00,,,0.00,Wunderground v.1.15,2013-07-06 09:25:00,
2013-07-06 05:35:00,77.0,74.5,30.09,ENE,68,0.0,0.0,92,0.00,,,0.00,Wunderground v.1.15,2013-07-06 09:35:00,
2013-07-06 05:44:00,76.9,74.4,30.09,ENE,68,0.0,0.0,92,0.00,,,0.00,Wunderground v.1.15,2013-07-06 09:44:00,
2013-07-06 05:55:00,77.0,74.5,30.10,ENE,68,0.0,0.0,92,0.00,,,0.00,Wunderground v.1.15,2013-07-06 09:55:00,
2013-07-06 06:05:00,77.0,74.5,30.10,SE,140,0.0,0.0,92,0.00,,,0.00,Wunderground v.1.15,2013-07-06 10:05:00,
2013-07-06 06:14:00,77.0,74.5,30.10,ESE,103,0.0,0.0,92,0.00,,,0.00,Wunderground v.1.15,2013-07-06 10:14:00,
2013-07-06 06:25:00,77.0,74.5,30.10,ESE,103,0.0,0.0,92,0.00,,,0.00,Wunderground v.1.15,2013-07-06 10:25:00,
2013-07-06 06:34:00,77.1,74.6,30.10,ESE,103,0.0,0.0,92,0.00,,,0.00,Wunderground v.1.15,2013-07-06 10:34:00,
2013-07-06 06:40:00,77.1,74.6,30.10,SE,137,0.0,0.0,92,0.00,,,0.00,Wunderground v.1.15,2013-07-06 10:40:00,
2013-07-06 06:50:00,77.0,74.5,30.10,SSW,207,0.0,0.0,92,0.00,,,0.00,Wunderground v.1.15,2013-07-06 10:50:00,
2013-07-06 06:59:00,77.1,74.6,30.10,SE,144,0.0,0.0,92,0.00,,,0.00,Wunderground v.1.15,2013-07-06 10:59:00,
2013-07-06 07:05:00,77.2,74.7,30.10,SE,134,0.0,0.0,92,0.00,,,0.00,Wunderground v.1.15,2013-07-06 11:05:00,
2013-07-06 07:10:00,77.2,74.7,30.10,SE,134,0.0,0.0,92,0.00,,,0.00,Wunderground v.1.15,2013-07-06 11:10:00,
2013-07-06 07:20:00,77.3,74.8,30.11,SE,134,0.0,0.0,92,0.00,,,0.00,Wunderground v.1.15,2013-07-06 11:20:00,
2013-07-06 07:29:00,77.5,75.0,30.11,SE,134,0.0,0.0,92,0.00,,,0.00,Wunderground v.1.15,2013-07-06 11:29:00,
2013-07-06 07:34:00,77.6,75.1,30.11,SE,134,0.0,0.0,92,0.00,,,0.00,Wunderground v.1.15,2013-07-06 11:34:00,
2013-07-06 07:40:00,77.9,75.4,30.11,SE,134,0.0,0.0,92,0.00,,,0.00,Wunderground v.1.15,2013-07-06 11:40:00,
2013-07-06 07:50:00,78.4,75.9,30.11,SE,134,0.0,0.0,92,0.00,,,0.00,Wunderground v.1.15,2013-07-06 11:50:00,
2013-07-06 07:59:00,78.6,75.8,30.11,SE,134,0.0,0.0,91,0.00,,,0.00,Wunderground v.1.15,2013-07-06 11:59:00,
2013-07-06 08:05:00,78.7,75.5,30.12,SE,134,0.0,0.0,90,0.00,,,0.00,Wunderground v.1.15,2013-07-06 12:05:00,
2013-07-06 08:15:00,79.2,76.0,30.12,SE,134,0.0,0.0,90,0.00,,,0.00,Wunderground v.1.15,2013-07-06 12:15:00,
2013-07-06 08:25:00,79.6,76.1,30.12,East,98,0.0,0.0,89,0.00,,,0.00,Wunderground v.1.15,2013-07-06 12:25:00,
2013-07-06 08:35:00,79.9,76.4,30.13,East,99,0.0,0.0,89,0.00,,,0.00,Wunderground v.1.15,2013-07-06 12:35:00,
2013-07-06 08:45:00,80.3,76.4,30.13,ESE,114,0.0,0.0,88,0.00,,,0.00,Wunderground v.1.15,2013-07-06 12:45:00,
2013-07-06 08:55:00,80.8,76.6,30.13,SSW,206,0.0,0.0,87,0.00,,,0.00,Wunderground v.1.15,2013-07-06 12:55:00,
2013-07-06 09:05:00,81.3,76.7,30.13,SE,138,0.0,0.0,86,0.00,,,0.00,Wunderground v.1.15,2013-07-06 13:05:00,
2013-07-06 09:15:00,82.0,77.0,30.13,SE,140,0.0,0.0,85,0.00,,,0.00,Wunderground v.1.15,2013-07-06 13:15:00,
2013-07-06 09:25:00,82.8,76.7,30.13,SE,134,0.0,0.0,82,0.00,,,0.00,Wunderground v.1.15,2013-07-06 13:25:00,
2013-07-06 09:35:00,83.3,76.9,30.13,SSE,148,0.0,0.0,81,0.00,,,0.00,Wunderground v.1.15,2013-07-06 13:35:00,
2013-07-06 09:45:00,83.9,76.7,30.13,SSW,196,0.0,0.0,79,0.00,,,0.00,Wunderground v.1.15,2013-07-06 13:45:00,
2013-07-06 09:55:00,84.2,77.0,30.13,SSW,201,0.0,0.0,79,0.00,,,0.00,Wunderground v.1.15,2013-07-06 13:55:00,
2013-07-06 10:05:00,84.7,77.1,30.13,SE,126,0.0,0.0,78,0.00,,,0.00,Wunderground v.1.15,2013-07-06 14:05:00,
2013-07-06 10:14:00,85.2,76.8,30.14,SE,125,0.0,0.0,76,0.00,,,0.00,Wunderground v.1.15,2013-07-06 14:14:00,
2013-07-06 10:20:00,85.5,76.7,30.14,ESE,113,0.0,0.0,75,0.00,,,0.00,Wunderground v.1.15,2013-07-06 14:20:00,
2013-07-06 10:30:00,85.7,76.5,30.14,SSE,157,0.0,0.0,74,0.00,,,0.00,Wunderground v.1.15,2013-07-06 14:30:00,
2013-07-06 10:35:00,85.3,76.5,30.14,SE,140,0.0,0.0,75,0.00,,,0.00,Wunderground v.1.15,2013-07-06 14:35:00,
2013-07-06 10:44:00,85.5,76.3,30.14,SSE,147,0.0,0.0,74,0.00,,,0.00,Wunderground v.1.15,2013-07-06 14:44:00,
2013-07-06 10:50:00,85.8,76.5,30.14,ESE,118,0.0,0.0,74,0.00,,,0.00,Wunderground v.1.15,2013-07-06 14:50:00,
2013-07-06 10:55:00,85.9,76.6,30.13,ESE,119,0.0,0.0,74,0.00,,,0.00,Wunderground v.1.15,2013-07-06 14:55:00,
2013-07-06 11:05:00,86.5,76.8,30.14,ESE,115,0.0,0.0,73,0.00,,,0.00,Wunderground v.1.15,2013-07-06 15:05:00,
2013-07-06 11:14:00,87.3,76.7,30.14,ESE,115,0.0,0.0,71,0.00,,,0.00,Wunderground v.1.15,2013-07-06 15:14:00,
2013-07-06 11:25:00,87.7,77.1,30.14,ESE,115,0.0,0.0,71,0.00,,,0.00,Wunderground v.1.15,2013-07-06 15:25:00,
2013-07-06 11:35:00,88.1,76.2,30.14,ESE,121,0.0,0.0,68,0.00,,,0.00,Wunderground v.1.15,2013-07-06 15:35:00,
2013-07-06 11:44:00,88.4,76.9,30.13,ESE,119,0.0,0.0,69,0.00,,,0.00,Wunderground v.1.15,2013-07-06 15:44:00,
2013-07-06 11:55:00,88.5,76.6,30.13,East,88,0.0,0.0,68,0.00,,,0.00,Wunderground v.1.15,2013-07-06 15:55:00,
2013-07-06 12:15:00,89.1,76.7,30.13,ESE,109,0.0,0.0,67,0.00,,,0.00,Wunderground v.1.15,2013-07-06 16:15:00,
2013-07-06 12:30:00,89.2,77.3,30.13,ESE,110,0.0,0.0,68,0.00,,,0.00,Wunderground v.1.15,2013-07-06 16:30:00,
2013-07-06 12:50:00,89.8,76.5,30.13,ESE,113,0.0,0.0,65,0.00,,,0.00,Wunderground v.1.15,2013-07-06 16:50:00,
2013-07-06 13:00:00,90.5,77.1,30.12,ESE,121,0.0,1.0,65,0.00,,,0.00,Wunderground v.1.15,2013-07-06 17:00:00,
2013-07-06 13:15:00,91.5,76.6,30.12,East,98,0.0,0.0,62,0.00,,,0.00,Wunderground v.1.15,2013-07-06 17:15:00,
2013-07-06 13:40:00,91.0,77.1,30.11,East,98,0.0,0.0,64,0.00,,,0.00,Wunderground v.1.15,2013-07-06 17:40:00,
2013-07-06 13:50:00,90.6,77.7,30.11,East,95,0.0,0.0,66,0.00,,,0.00,Wunderground v.1.15,2013-07-06 17:50:00,
2013-07-06 13:59:00,91.0,77.6,30.11,ESE,104,0.0,0.0,65,0.00,,,0.00,Wunderground v.1.15,2013-07-06 17:59:00,
2013-07-06 14:05:00,91.0,78.1,30.11,ESE,105,0.0,0.0,66,0.00,,,0.00,Wunderground v.1.15,2013-07-06 18:05:00,
2013-07-06 14:15:00,90.7,77.3,30.10,SE,139,1.0,1.0,65,0.00,,,0.00,Wunderground v.1.15,2013-07-06 18:15:00,
2013-07-06 14:25:00,89.6,77.2,30.10,SE,132,0.0,0.0,67,0.00,,,0.00,Wunderground v.1.15,2013-07-06 18:25:00,
2013-07-06 15:10:00,90.7,76.8,30.09,ESE,117,1.0,1.0,64,0.00,,,0.00,Wunderground v.1.15,2013-07-06 19:10:00,
2013-07-06 15:19:00,90.6,77.7,30.09,ESE,117,1.0,2.0,66,0.00,,,0.00,Wunderground v.1.15,2013-07-06 19:19:00,
2013-07-06 15:30:00,90.7,77.8,30.08,ESE,113,1.0,1.0,66,0.00,,,0.00,Wunderground v.1.15,2013-07-06 19:30:00,
2013-07-06 15:35:00,90.8,77.9,30.09,ESE,114,1.0,1.0,66,0.00,,,0.00,Wunderground v.1.15,2013-07-06 19:35:00,
2013-07-06 15:49:00,90.6,77.7,30.08,ENE,74,1.0,1.0,66,0.00,,,0.00,Wunderground v.1.15,2013-07-06 19:49:00,
2013-07-06 15:55:00,90.4,77.5,30.08,East,92,1.0,2.0,66,0.00,,,0.00,Wunderground v.1.15,2013-07-06 19:55:00,
2013-07-06 16:05:00,90.1,77.2,30.08,South,179,1.0,2.0,66,0.00,,,0.00,Wunderground v.1.15,2013-07-06 20:05:00,
2013-07-06 16:15:00,90.0,77.1,30.08,East,95,1.0,2.0,66,0.00,,,0.00,Wunderground v.1.15,2013-07-06 20:15:00,
2013-07-06 16:25:00,90.2,77.8,30.08,East,96,1.0,2.0,67,0.00,,,0.00,Wunderground v.1.15,2013-07-06 20:25:00,
2013-07-06 16:35:00,89.8,77.8,30.08,ESE,110,2.0,2.0,68,0.00,,,0.00,Wunderground v.1.15,2013-07-06 20:35:00,
2013-07-06 17:00:00,89.4,77.4,30.07,ESE,105,1.0,2.0,68,0.00,,,0.00,Wunderground v.1.15,2013-07-06 21:00:00,
2013-07-06 17:10:00,89.0,77.9,30.07,ESE,105,1.0,1.0,70,0.00,,,0.00,Wunderground v.1.15,2013-07-06 21:10:00,
2013-07-06 17:15:00,89.0,77.1,30.07,ESE,105,1.0,1.0,68,0.00,,,0.00,Wunderground v.1.15,2013-07-06 21:15:00,
2013-07-06 17:29:00,88.5,77.5,30.07,ESE,116,2.0,3.0,70,0.00,,,0.00,Wunderground v.1.15,2013-07-06 21:29:00,
2013-07-06 17:50:00,88.3,78.1,30.07,ESE,120,1.0,2.0,72,0.00,,,0.00,Wunderground v.1.15,2013-07-06 21:50:00,
2013-07-06 18:00:00,87.9,76.5,30.06,ESE,118,1.0,3.0,69,0.00,,,0.00,Wunderground v.1.15,2013-07-06 22:00:00,
2013-07-06 18:05:00,87.7,76.7,30.06,ESE,118,1.0,3.0,70,0.00,,,0.00,Wunderground v.1.15,2013-07-06 22:05:00,
2013-07-06 18:14:00,87.7,77.1,30.06,ESE,120,1.0,1.0,71,0.00,,,0.00,Wunderground v.1.15,2013-07-06 22:14:00,
2013-07-06 18:20:00,87.7,76.7,30.06,East,93,1.0,1.0,70,0.00,,,0.00,Wunderground v.1.15,2013-07-06 22:20:00,
2013-07-06 18:30:00,87.5,77.4,30.06,East,101,1.0,1.0,72,0.00,,,0.00,Wunderground v.1.15,2013-07-06 22:30:00,
2013-07-06 18:35:00,87.4,76.8,30.06,East,101,1.0,2.0,71,0.00,,,0.00,Wunderground v.1.15,2013-07-06 22:35:00,
2013-07-06 18:55:00,86.1,76.4,30.06,East,99,1.0,1.0,73,0.00,,,0.00,Wunderground v.1.15,2013-07-06 22:55:00,
2013-07-06 19:15:00,85.6,77.2,30.06,ESE,103,0.0,1.0,76,0.00,,,0.00,Wunderground v.1.15,2013-07-06 23:15:00,
2013-07-06 19:30:00,85.1,76.7,30.07,ESE,109,0.0,0.0,76,0.00,,,0.00,Wunderground v.1.15,2013-07-06 23:30:00,
2013-07-06 19:35:00,84.9,76.9,30.07,ESE,109,0.0,0.0,77,0.00,,,0.00,Wunderground v.1.15,2013-07-06 23:35:00,
2013-07-06 19:45:00,84.4,76.4,30.07,ESE,109,0.0,1.0,77,0.00,,,0.00,Wunderground v.1.15,2013-07-06 23:45:00,
2013-07-06 20:15:00,83.4,76.6,30.07,SE,134,0.0,0.0,80,0.00,,,0.00,Wunderground v.1.15,2013-07-07 00:15:00,
2013-07-06 20:24:00,83.1,75.9,30.08,SE,134,0.0,0.0,79,0.00,,,0.00,Wunderground v.1.15,2013-07-07 00:24:00,
2013-07-06 20:34:00,82.8,76.0,30.08,SE,131,0.0,0.0,80,0.00,,,0.00,Wunderground v.1.15,2013-07-07 00:34:00,
2013-07-06 20:40:00,82.7,75.9,30.09,SE,131,0.0,0.0,80,0.00,,,0.00,Wunderground v.1.15,2013-07-07 00:40:00,
2013-07-06 20:50:00,82.4,76.0,30.09,SE,131,0.0,0.0,81,0.00,,,0.00,Wunderground v.1.15,2013-07-07 00:50:00,
2013-07-06 20:59:00,82.2,76.2,30.08,SE,131,0.0,0.0,82,0.00,,,0.00,Wunderground v.1.15,2013-07-07 00:59:00,
2013-07-06 21:10:00,82.0,76.0,30.09,SE,131,0.0,0.0,82,0.00,,,0.00,Wunderground v.1.15,2013-07-07 01:10:00,
2013-07-06 21:25:00,81.6,75.9,30.09,East,101,0.0,0.0,83,0.00,,,0.00,Wunderground v.1.15,2013-07-07 01:25:00,
2013-07-06 21:55:00,81.2,75.9,30.10,SSE,157,0.0,0.0,84,0.00,,,0.00,Wunderground v.1.15,2013-07-07 01:55:00,
2013-07-06 22:09:00,80.9,76.0,30.11,SSE,153,0.0,0.0,85,0.00,,,0.00,Wunderground v.1.15,2013-07-07 02:09:00,
2013-07-06 22:20:00,80.7,75.8,30.11,SSE,153,0.0,0.0,85,0.00,,,0.00,Wunderground v.1.15,2013-07-07 02:20:00,
2013-07-06 22:29:00,80.6,76.0,30.11,SSE,157,0.0,0.0,86,0.00,,,0.00,Wunderground v.1.15,2013-07-07 02:29:00,
2013-07-06 22:35:00,80.5,75.9,30.11,SSE,155,0.0,0.0,86,0.00,,,0.00,Wunderground v.1.15,2013-07-07 02:35:00,
2013-07-06 22:44:00,80.5,75.9,30.11,SSE,155,0.0,0.0,86,0.00,,,0.00,Wunderground v.1.15,2013-07-07 02:44:00,
2013-07-06 22:50:00,80.4,75.8,30.11,South,178,0.0,0.0,86,0.00,,,0.00,Wunderground v.1.15,2013-07-07 02:50:00,
2013-07-06 23:05:00,80.2,76.0,30.12,South,188,0.0,0.0,87,0.00,,,0.00,Wunderground v.1.15,2013-07-07 03:05:00,
2013-07-06 23:20:00,80.1,75.9,30.12,SE,130,0.0,0.0,87,0.00,,,0.00,Wunderground v.1.15,2013-07-07 03:20:00,
2013-07-06 23:30:00,80.1,75.9,30.12,SE,130,0.0,0.0,87,0.00,,,0.00,Wunderground v.1.15,2013-07-07 03:30:00,
2013-07-06 23:35:00,80.0,75.8,30.12,SSE,154,0.0,0.0,87,0.00,,,0.00,Wunderground v.1.15,2013-07-07 03:35:00,
2013-07-06 23:44:00,79.8,75.6,30.12,SSE,154,0.0,0.0,87,0.00,,,0.00,Wunderground v.1.15,2013-07-07 03:44:00,
2013-07-06 23:50:00,79.7,75.5,30.13,SSE,156,0.0,0.0,87,0.00,,,0.00,Wunderground v.1.15,2013-07-07 03:50:00,